This is the latest recevied weather packets stored in our database for station/object F1ZRP-13. If no packets are shown the sender has not sent any weather packets the latest 10 day(s).
| Time | Temp. | Humidity | Pressure | Rain* | Wind** | Luminosity | Snow |
|---|---|---|---|---|---|---|---|
| 1777681775 | 11.67° C | 64% | 1022.8 hPa | - | - | - | - |
| 1777680686 | 11.67° C | 63% | 1022.9 hPa | - | - | - | - |
| 1777679834 | 11.67° C | 62% | 1022.7 hPa | - | - | - | - |
| 1777678707 | 12.22° C | 60% | 1022.8 hPa | - | - | - | - |
| 1777677729 | 12.78° C | 56% | 1022.9 hPa | - | - | - | - |
| 1777677041 | 12.78° C | 57% | 1023 hPa | - | - | - | - |
| 1777676131 | 12.78° C | 55% | 1023 hPa | - | - | - | - |
| 1777675246 | 13.33° C | 55% | 1023.1 hPa | - | - | - | - |
| 1777674125 | 13.33° C | 54% | 1023.2 hPa | - | - | - | - |
| 1777673115 | 13.33° C | 54% | 1023.3 hPa | - | - | - | - |
| 1777672088 | 13.89° C | 52% | 1023.4 hPa | - | - | - | - |
| 1777671167 | 13.89° C | 53% | 1023.4 hPa | - | - | - | - |
| 1777670250 | 13.89° C | 53% | 1023.4 hPa | - | - | - | - |
| 1777669382 | 13.89° C | 52% | 1023.4 hPa | - | - | - | - |
| 1777668312 | 14.44° C | 53% | 1023.4 hPa | - | - | - | - |
| 1777667387 | 14.44° C | 52% | 1023.1 hPa | - | - | - | - |
| 1777666343 | 15.56° C | 47% | 1022.9 hPa | - | - | - | - |
| 1777665550 | 15.56° C | 47% | 1023 hPa | - | - | - | - |
| 1777664493 | 16.11° C | 48% | 1023 hPa | - | - | - | - |
| 1777663235 | 16.67° C | 46% | 1022.9 hPa | - | - | - | - |
| 1777662033 | 17.78° C | 45% | 1022.9 hPa | - | - | - | - |
| 1777661087 | 18.33° C | 42% | 1022.8 hPa | - | - | - | - |
| 1777660084 | 18.89° C | 40% | 1022.8 hPa | - | - | - | - |
| 1777659459 | 19.44° C | 38% | 1022.8 hPa | - | - | - | - |
| 1777658430 | 21.11° C | 37% | 1022.7 hPa | - | - | - | - |
* Rain since midnight (hover to see other rain measurements)
** Current wind speed in m/s (hover to see current wind gust speed)